GW2569 Weather Reports


time (UTC)temp
C
wind
direction
speed
KPH
gust
KPH
rain 1hr
cm
rain 24hr
cm
rain mn
cm
humidity
%
barometer
mb
20260507045040 31 0 0.0 6.4 0.00 0.00 0.00 78 1009.4
20260507044547 31 0 1.6 6.4 0.00 0.00 0.00 78 1009.3
20260507044040 31 103 0.0 9.7 0.00 0.00 0.00 77 1009.2
20260507043540 31 104 1.6 9.7 0.00 0.00 0.00 77 1009.2
20260507043051 31 103 1.6 9.7 0.00 0.00 0.00 77 1009.2
20260507042539 31 180 3.2 11.3 0.00 0.00 0.00 77 1009.2
20260507042040 31 95 1.6 12.9 0.00 0.00 0.00 77 1009.1
20260507041548 31 119 3.2 12.9 0.00 0.00 0.00 77 1009.1
20260507041042 31 103 3.2 12.9 0.00 0.00 0.00 77 1009.1
20260507040540 31 119 3.2 11.3 0.00 0.00 0.00 76 1009.0
20260507040104 31 104 3.2 11.3 0.00 0.00 0.00 76 1008.9
20260507035540 31 110 3.2 11.3 0.00 0.00 0.00 76 1009.0
20260507035038 31 113 4.8 11.3 0.00 0.00 0.00 76 1008.9
20260507034605 32 94 4.8 12.9 0.00 0.00 0.00 75 1008.9
20260507034040 32 85 4.8 12.9 0.00 0.00 0.00 75 1008.9
20260507033540 32 90 4.8 11.3 0.00 0.00 0.00 75 1008.9
20260507033103 32 80 4.8 11.3 0.00 0.00 0.00 74 1008.9
20260507032544 32 88 3.2 11.3 0.00 0.00 0.00 74 1008.9
20260507032040 32 128 3.2 11.3 0.00 0.00 0.00 74 1008.8
20260507031551 32 136 4.8 11.3 0.00 0.00 0.00 74 1008.9
20260507031040 32 103 6.4 12.9 0.00 0.00 0.00 74 1008.9
20260507030543 32 119 4.8 14.5 0.00 0.00 0.00 74 1008.8
20260507030050 32 111 6.4 14.5 0.00 0.00 0.00 74 1008.7
20260507025538 32 99 6.4 14.5 0.00 0.00 0.00 74 1008.8
20260507025040 32 128 6.4 14.5 0.00 0.00 0.00 74 1008.6
20260507024555 32 122 6.4 14.5 0.00 0.00 0.00 74 1008.6
20260507024041 32 121 6.4 14.5 0.00 0.00 0.00 74 1008.6
20260507023542 32 117 6.4 14.5 0.00 0.00 0.00 74 1008.5
20260507023049 32 123 4.8 11.3 0.00 0.00 0.00 74 1008.5
20260507022540 32 74 4.8 11.3 0.00 0.00 0.00 74 1008.5
20260507022040 32 109 3.2 12.9 0.00 0.00 0.00 74 1008.3
20260507021550 32 114 4.8 12.9 0.00 0.00 0.00 74 1008.3
20260507021044 32 112 4.8 11.3 0.00 0.00 0.00 74 1008.3
20260507020538 33 101 3.2 11.3 0.00 0.00 0.00 74 1008.2
20260507020048 33 101 4.8 11.3 0.00 0.00 0.00 73 1008.2
20260507015538 33 107 1.6 12.9 0.00 0.00 0.00 73 1008.2
20260507015039 33 112 4.8 12.9 0.00 0.00 0.00 73 1008.2
20260507014552 33 71 4.8 14.5 0.00 0.00 0.00 73 1008.0
20260507014040 33 139 4.8 14.5 0.00 0.00 0.00 72 1007.9
20260507013538 33 110 6.4 12.9 0.00 0.00 0.00 72 1007.9
20260507013103 33 80 4.8 12.9 0.00 0.00 0.00 71 1007.8
20260507012539 33 117 4.8 12.9 0.00 0.00 0.00 71 1007.8
20260507012040 33 101 6.4 12.9 0.00 0.00 0.00 70 1007.8
20260507011548 33 74 6.4 12.9 0.00 0.00 0.00 70 1007.7
20260507011042 34 92 4.8 12.9 0.00 0.00 0.00 70 1007.7
20260507010540 34 83 4.8 12.9 0.00 0.00 0.00 69 1007.6
20260507010053 34 115 4.8 14.5 0.00 0.00 0.00 69 1007.5
20260507005538 34 117 4.8 14.5 0.00 0.00 0.00 69 1007.4
20260507005040 34 119 8.0 14.5 0.00 0.00 0.00 69 1007.4
20260507004547 34 103 4.8 12.9 0.00 0.00 0.00 69 1007.3
20260507004040 34 105 3.2 12.9 0.00 0.00 0.00 69 1007.4
20260507003541 35 94 4.8 12.9 0.00 0.00 0.00 69 1007.3
20260507003051 35 95 6.4 11.3 0.00 0.00 0.00 69 1007.3
20260507002540 35 76 3.2 11.3 0.00 0.00 0.00 70 1007.2
20260507002040 35 128 3.2 11.3 0.00 0.00 0.00 69 1007.2
20260507001608 35 107 4.8 12.9 0.00 0.00 0.00 69 1007.1
20260507001039 35 136 4.8 14.5 0.00 0.00 0.00 69 1007.2
20260507000539 35 103 6.4 14.5 0.00 0.00 0.00 69 1007.2
20260507000056 35 74 8.0 16.1 0.00 0.00 0.00 69 1007.1
20260506235539 35 107 6.4 16.1 0.00 0.00 0.00 70 1007.1
20260506235040 36 112 6.4 16.1 0.00 0.00 0.00 70 1007.1
20260506234600 36 100 6.4 16.1 0.00 0.00 0.00 71 1007.2
20260506234038 36 71 8.0 17.7 0.00 0.00 0.00 71 1007.2
20260506233538 36 90 8.0 17.7 0.00 0.00 0.00 71 1007.2
20260506233047 36 83 9.7 17.7 0.00 0.00 0.00 71 1007.2
20260506232539 36 142 9.7 19.3 0.00 0.00 0.00 71 1007.2
20260506232040 36 84 11.3 19.3 0.00 0.00 0.00 70 1007.1
20260506231554 36 85 6.4 17.7 0.00 0.00 0.00 70 1007.2
20260506231040 36 105 8.0 19.3 0.00 0.00 0.00 70 1007.1
20260506230539 36 105 9.7 19.3 0.00 0.00 0.00 70 1007.1
20260506230054 36 102 11.3 17.7 0.00 0.00 0.00 70 1007.0
20260506225543 36 70 8.0 17.7 0.00 0.00 0.00 69 1007.1
20260506225040 36 74 9.7 17.7 0.00 0.00 0.00 69 1007.0
20260506224604 37 159 6.4 16.1 0.00 0.00 0.00 69 1007.0
20260506224038 37 94 8.0 19.3 0.00 0.00 0.00 69 1007.0
20260506223536 37 34 8.0 19.3 0.00 0.00 0.00 69 1006.9
20260506223059 37 114 11.3 19.3 0.00 0.00 0.00 69 1007.0
20260506222541 37 96 9.7 19.3 0.00 0.00 0.00 69 1006.9
20260506222040 37 94 9.7 19.3 0.00 0.00 0.00 69 1007.0
20260506221552 37 112 6.4 19.3 0.00 0.00 0.00 70 1007.0
20260506221039 37 69 8.0 19.3 0.00 0.00 0.00 70 1007.0
20260506220540 37 63 6.4 19.3 0.00 0.00 0.00 70 1007.1
20260506220104 37 84 9.7 22.5 0.00 0.00 0.00 70 1007.1
20260506215541 37 102 9.7 22.5 0.00 0.00 0.00 69 1007.1
20260506215041 37 58 8.0 16.1 0.00 0.00 0.00 70 1007.1
20260506214549 37 117 9.7 22.5 0.00 0.00 0.00 70 1007.2
20260506214039 37 76 9.7 22.5 0.00 0.00 0.00 70 1007.2
20260506213539 37 102 9.7 19.3 0.00 0.00 0.00 70 1007.3
20260506213049 37 61 9.7 19.3 0.00 0.00 0.00 70 1007.3
20260506212540 37 104 6.4 17.7 0.00 0.00 0.00 70 1007.2
20260506212040 37 97 8.0 20.9 0.00 0.00 0.00 70 1007.3
20260506211552 37 86 8.0 20.9 0.00 0.00 0.00 70 1007.4
20260506211040 37 70 9.7 16.1 0.00 0.00 0.00 70 1007.3
20260506210540 37 136 4.8 16.1 0.00 0.00 0.00 70 1007.4
20260506210050 37 88 3.2 19.3 0.00 0.00 0.00 69 1007.5
20260506205539 37 98 6.4 19.3 0.00 0.00 0.00 68 1007.5
20260506205040 37 113 8.0 19.3 0.00 0.00 0.00 68 1007.5
20260506204546 37 118 6.4 17.7 0.00 0.00 0.00 68 1007.6
20260506204039 37 74 6.4 20.9 0.00 0.00 0.00 67 1007.7
20260506203540 37 101 11.3 20.9 0.00 0.00 0.00 68 1007.8
20260506203049 37 73 9.7 20.9 0.00 0.00 0.00 70 1007.8
20260506202543 37 98 8.0 17.7 0.00 0.00 0.00 70 1007.9
20260506202040 37 68 6.4 19.3 0.00 0.00 0.00 70 1008.0
20260506201546 37 215 6.4 20.9 0.00 0.00 0.00 69 1008.1
20260506201040 37 55 6.4 20.9 0.00 0.00 0.00 70 1008.1
20260506200538 37 56 9.7 20.9 0.00 0.00 0.00 70 1008.2
20260506200045 36 65 6.4 19.3 0.00 0.00 0.00 71 1008.3
20260506195540 37 41 11.3 19.3 0.00 0.00 0.00 70 1008.5
20260506195041 37 74 8.0 17.7 0.00 0.00 0.00 68 1008.5
20260506194554 36 101 9.7 17.7 0.00 0.00 0.00 69 1008.6
20260506194040 36 112 9.7 17.7 0.00 0.00 0.00 69 1008.6
20260506193538 36 123 6.4 17.7 0.00 0.00 0.00 69 1008.8
20260506193052 36 95 8.0 17.7 0.00 0.00 0.00 70 1008.9
20260506192539 36 156 8.0 17.7 0.00 0.00 0.00 71 1009.0
20260506192040 36 107 6.4 20.9 0.00 0.00 0.00 71 1009.2
20260506191547 36 130 8.0 20.9 0.00 0.00 0.00 71 1009.3
20260506191037 36 103 8.0 19.3 0.00 0.00 0.00 73 1009.4
20260506190542 36 101 8.0 19.3 0.00 0.00 0.00 73 1009.4
20260506190052 36 60 8.0 19.3 0.00 0.00 0.00 74 1009.5
20260506185540 36 81 8.0 16.1 0.00 0.00 0.00 73 1009.6
20260506185040 36 110 6.4 17.7 0.00 0.00 0.00 74 1009.7
20260506184550 36 110 8.0 17.7 0.00 0.00 0.00 74 1009.8
20260506184040 36 341 9.7 17.7 0.00 0.00 0.00 74 1009.8
20260506183543 36 82 6.4 17.7 0.00 0.00 0.00 74 1009.8
20260506183101 36 107 8.0 17.7 0.00 0.00 0.00 74 1010.0
20260506182537 36 94 8.0 17.7 0.00 0.00 0.00 74 1010.0
20260506182037 35 63 6.4 17.7 0.00 0.00 0.00 74 1010.0
20260506181608 35 49 4.8 16.1 0.00 0.00 0.00 74 1010.1
20260506181038 35 148 9.7 19.3 0.00 0.00 0.00 75 1010.1
20260506180541 35 310 8.0 19.3 0.00 0.00 0.00 75 1010.2
20260506180054 35 121 4.8 17.7 0.00 0.00 0.00 76 1010.2
20260506175540 35 95 9.7 16.1 0.00 0.00 0.00 75 1010.4
20260506175039 35 51 4.8 16.1 0.00 0.00 0.00 76 1010.5
20260506174548 35 89 4.8 14.5 0.00 0.00 0.00 76 1010.6
20260506174039 35 148 6.4 14.5 0.00 0.00 0.00 75 1010.7
20260506173542 34 112 3.2 16.1 0.00 0.00 0.00 76 1010.7
20260506173116 34 13 6.4 16.1 0.00 0.00 0.00 76 1010.8
20260506172540 34 55 4.8 16.1 0.00 0.00 0.00 77 1010.9
20260506172041 34 69 6.4 14.5 0.00 0.00 0.00 77 1010.9
20260506171553 34 169 3.2 14.5 0.00 0.00 0.00 77 1011.0
20260506171040 34 70 6.4 14.5 0.00 0.00 0.00 76 1011.1
20260506170539 34 0 6.4 16.1 0.00 0.00 0.00 75 1011.2
20260506170057 33 88 1.6 16.1 0.00 0.00 0.00 74 1011.2
20260506165537 33 105 8.0 16.1 0.00 0.00 0.00 76 1011.2
20260506165040 33 187 6.4 12.9 0.00 0.00 0.00 76 1011.3
20260506164550 33 0 4.8 12.9 0.00 0.00 0.00 75 1011.2
20260506164039 33 80 3.2 11.3 0.00 0.00 0.00 77 1011.2
20260506163539 33 74 4.8 11.3 0.00 0.00 0.00 75 1011.3
20260506163048 33 117 6.4 12.9 0.00 0.00 0.00 76 1011.3
20260506162537 33 107 3.2 12.9 0.00 0.00 0.00 77 1011.4
20260506162042 32 109 4.8 12.9 0.00 0.00 0.00 78 1011.3
20260506161546 32 85 4.8 11.3 0.00 0.00 0.00 78 1011.3
20260506161040 32 124 4.8 12.9 0.00 0.00 0.00 78 1011.4
20260506160536 32 160 6.4 12.9 0.00 0.00 0.00 78 1011.4
20260506155540 32 122 4.8 14.5 0.00 0.00 0.00 79 1011.5
20260506155040 31 90 8.0 14.5 0.00 0.00 0.00 79 1011.5
20260506154549 31 59 3.2 12.9 0.00 0.00 0.00 79 1011.5
20260506154043 31 105 6.4 12.9 0.00 0.00 0.00 80 1011.7
20260506153540 31 74 4.8 12.9 0.00 0.00 0.00 80 1011.7
20260506153053 31 59 4.8 11.3 0.00 0.00 0.00 81 1011.8
20260506152539 31 15 3.2 14.5 0.00 0.00 0.00 82 1011.7
20260506152039 31 115 3.2 14.5 0.00 0.00 0.00 82 1011.7
20260506151550 30 142 4.8 14.5 0.00 0.00 0.00 83 1011.7
20260506151040 30 121 6.4 14.5 0.00 0.00 0.00 83 1011.7
20260506150542 30 115 8.0 14.5 0.00 0.00 0.00 83 1011.7
20260506150051 30 86 6.4 12.9 0.00 0.00 0.00 83 1011.6
20260506145538 30 74 6.4 12.9 0.00 0.00 0.00 83 1011.5
20260506145038 30 111 4.8 14.5 0.00 0.00 0.00 83 1011.5
20260506144550 30 149 3.2 16.1 0.00 0.00 0.00 84 1011.6
20260506144040 29 135 6.4 16.1 0.00 0.00 0.00 84 1011.7
20260506143540 29 121 9.7 16.1 0.00 0.00 0.00 84 1011.8
20260506143048 29 82 6.4 14.5 0.00 0.00 0.00 85 1011.6
20260506142536 28 144 6.4 14.5 0.00 0.00 0.00 85 1011.7
20260506142042 28 63 8.0 14.5 0.00 0.00 0.00 85 1011.7
20260506141555 28 100 6.4 12.9 0.00 0.00 0.00 86 1011.7
20260506141042 28 117 6.4 12.9 0.00 0.00 0.00 86 1011.7
20260506140542 28 152 3.2 16.1 0.00 0.00 0.00 86 1011.7
20260506140051 28 84 6.4 16.1 0.00 0.00 0.00 87 1011.8
20260506135537 28 120 4.8 14.5 0.00 0.00 0.00 87 1011.7
20260506135037 28 101 4.8 19.3 0.00 0.00 0.00 87 1011.7
20260506134548 27 146 6.4 19.3 0.00 0.00 0.00 87 1011.6
20260506134037 27 142 9.7 19.3 0.00 0.00 0.00 87 1011.6
20260506133538 27 132 4.8 14.5 0.00 0.00 0.00 88 1011.6
20260506133048 27 95 6.4 16.1 0.00 0.00 0.00 88 1011.6
20260506132537 27 69 4.8 16.1 0.00 0.00 0.00 89 1011.6
20260506132042 27 61 4.8 14.5 0.00 0.00 0.00 89 1011.7
20260506131558 27 110 6.4 14.5 0.00 0.00 0.00 89 1011.6
20260506131041 27 84 4.8 14.5 0.00 0.00 0.00 90 1011.7
20260506130540 27 120 8.0 14.5 0.00 0.00 0.00 90 1011.5
20260506130053 26 94 4.8 12.9 0.00 0.00 0.00 90 1011.6
20260506125539 26 98 6.4 12.9 0.00 0.00 0.00 90 1011.6
20260506125039 26 132 4.8 12.9 0.00 0.00 0.00 90 1011.5
20260506124555 26 137 4.8 12.9 0.00 0.00 0.00 90 1011.5
20260506124039 26 114 1.6 11.3 0.00 0.00 0.00 90 1011.5
20260506123539 26 79 4.8 11.3 0.00 0.00 0.00 90 1011.4
20260506123052 26 138 3.2 11.3 0.00 0.00 0.00 90 1011.4
20260506122539 26 72 4.8 11.3 0.00 0.00 0.00 90 1011.4
20260506122037 26 104 3.2 9.7 0.00 0.00 0.00 91 1011.4
20260506121547 26 71 3.2 9.7 0.00 0.00 0.00 91 1011.3
20260506121039 26 119 3.2 6.4 0.00 0.00 0.00 91 1011.2
20260506120541 26 115 1.6 6.4 0.00 0.00 0.00 91 1011.2
20260506120053 26 134 3.2 9.7 0.00 0.00 0.00 90 1011.0
20260506115540 26 101 1.6 9.7 0.00 0.00 0.00 90 1011.1
20260506115036 26 76 3.2 9.7 0.00 0.00 0.00 90 1011.0
20260506114549 26 91 1.6 9.7 0.00 0.00 0.00 90 1011.1
20260506114040 26 151 3.2 9.7 0.00 0.00 0.00 90 1010.9
20260506113540 26 100 1.6 6.4 0.00 0.00 0.00 90 1011.0
20260506113050 26 110 1.6 9.7 0.00 0.00 0.00 90 1011.0
20260506112543 26 113 3.2 11.3 0.00 0.00 0.00 90 1010.9
20260506112039 26 111 3.2 11.3 0.00 0.00 0.00 90 1010.9
20260506111552 26 107 4.8 12.9 0.00 0.00 0.00 90 1010.9
20260506111039 26 98 4.8 12.9 0.00 0.00 0.00 89 1010.8
20260506110540 26 104 4.8 14.5 0.00 0.00 0.00 89 1010.8
20260506110050 27 96 3.2 14.5 0.00 0.00 0.00 89 1010.8
20260506105540 27 90 6.4 14.5 0.00 0.00 0.00 89 1010.7
20260506105042 27 117 4.8 12.9 0.00 0.00 0.00 89 1010.7
20260506104549 27 111 4.8 11.3 0.00 0.00 0.00 89 1010.6
20260506104040 27 123 4.8 11.3 0.00 0.00 0.00 89 1010.6
20260506103539 27 0 1.6 8.0 0.00 0.00 0.00 89 1010.5
20260506103050 27 96 1.6 6.4 0.00 0.00 0.00 88 1010.5
20260506102539 27 91 1.6 6.4 0.00 0.00 0.00 88 1010.5
20260506102039 27 194 0.0 11.3 0.00 0.00 0.00 88 1010.4
20260506101548 27 155 3.2 11.3 0.00 0.00 0.00 88 1010.5
20260506101039 27 89 4.8 12.9 0.00 0.00 0.00 88 1010.3
20260506100539 27 109 4.8 12.9 0.00 0.00 0.00 88 1010.3
20260506100046 27 76 4.8 12.9 0.00 0.00 0.00 88 1010.2
20260506095538 27 85 4.8 12.9 0.00 0.00 0.00 88 1010.1
20260506095042 27 86 3.2 11.3 0.00 0.00 0.00 89 1010.1
20260506094607 27 77 4.8 11.3 0.00 0.00 0.00 89 1010.1
20260506094041 27 133 3.2 11.3 0.00 0.00 0.00 88 1010.0
20260506093541 27 87 3.2 11.3 0.00 0.00 0.00 88 1010.0
20260506093048 27 0 3.2 9.7 0.00 0.00 0.00 89 1010.0
20260506092541 27 61 1.6 12.9 0.00 0.00 0.00 89 1010.0
20260506092041 27 0 1.6 12.9 0.00 0.00 0.00 89 1010.0
20260506091550 27 96 4.8 12.9 0.00 0.00 0.00 89 1009.8
20260506091041 27 84 3.2 8.0 0.00 0.00 0.00 90 1009.9
20260506090539 27 148 1.6 6.4 0.00 0.00 0.00 90 1009.8
20260506090048 27 101 0.0 9.7 0.00 0.00 0.00 91 1009.7
20260506085540 27 107 3.2 11.3 0.00 0.00 0.00 91 1009.7
20260506085043 27 91 6.4 11.3 0.00 0.00 0.00 91 1009.7
20260506084548 27 184 3.2 9.7 0.00 0.00 0.00 91 1009.8
20260506084042 27 132 4.8 14.5 0.00 0.00 0.00 92 1009.8
20260506083545 27 101 4.8 14.5 0.00 0.00 0.00 92 1009.8
20260506083046 28 119 3.2 6.4 0.00 0.00 0.00 92 1009.8
20260506082541 28 0 0.0 9.7 0.00 0.00 0.00 92 1009.8
20260506082041 28 136 3.2 9.7 0.00 0.00 0.00 92 1009.8
20260506081555 28 0 1.6 11.3 0.00 0.00 0.00 93 1009.8
20260506081039 28 126 0.0 12.9 0.00 0.00 0.00 93 1009.7
20260506080541 28 0 3.2 12.9 0.00 0.00 0.00 93 1009.7
20260506073053 28 115 6.4 14.5 0.00 0.00 0.00 93 1009.6
20260506072545 28 104 4.8 12.9 0.00 0.00 0.00 93 1009.7
20260506072043 28 88 4.8 12.9 0.00 0.00 0.00 93 1009.8
20260506071551 28 111 3.2 11.3 0.00 0.00 0.00 93 1009.7
20260506071042 28 93 3.2 16.1 0.00 0.00 0.00 93 1009.7
20260506070541 28 81 1.6 16.1 0.00 0.00 0.00 93 1009.8
20260506062041 28 96 8.0 17.7 0.00 0.00 0.00 91 1010.0
20260506061546 28 142 4.8 14.5 0.00 0.00 0.00 91 1010.1
20260506061039 28 87 4.8 16.1 0.00 0.00 0.00 91 1010.1
20260506060537 28 38 6.4 16.1 0.00 0.00 0.00 91 1010.1
20260506060104 28 38 8.0 16.1 0.00 0.00 0.00 91 1010.1
20260506051039 29 38 8.0 16.1 0.00 0.00 0.00 90 1010.3
20260506050540 29 78 8.0 16.1 0.00 0.00 0.00 90 1010.2